Regional Weather Roundup
Issued by NWS Kansas City/Pleasant Hill, MO

Home | Current Version | Previous Version | Graphics & Text | Print | Product List | Glossary Off
Versions: 1 2 3 4 5 6 7 8 9 10 11 12 13 14 15 16 17 18 19 20 21 22 23 24 25 26 27 28 29 30 31 32 33 34 35 36 37 38 39 40 41 42 43 44 45 46 47 48 49 50

000
ASUS43 KEAX 261104
RWREAX

WEATHER ROUNDUP FOR EASTERN KANSAS AND NORTHWEST MISSOURI
NATIONAL WEATHER SERVICE KANSAS CITY/PLEASANT HILL MO
600 AM CDT SUN APR 26 2015

KSZ040-057-103>105-MOZ028-029-037-043-261200-
...KANSAS CITY METROPOLITAN AREA...

CITY           SKY/WX    TMP DP  RH WIND       PRES   REMARKS
K.C. INTL      CLOUDY    48  45  89 NE9       29.88R
K.C. DOWNTOWN  CLOUDY    49  45  86 NE9       29.87R
LEES SUMMIT    CLOUDY    48  44  86 NE15      29.87R
OLATHE - IXD   CLOUDY    48  45  89 E9        29.87R
OLATHE - OJC   CLOUDY    48  45  89 NE12      29.85R
LAWRENCE       CLOUDY    49  45  86 E7        29.87R

$$

MOZ001>008-011>017-020>025-030>033-038>040-044>046-053-054-261200-
...NORTHERN AND CENTRAL MISSOURI...

CITY           SKY/WX    TMP DP  RH WIND       PRES   REMARKS
ST. JOSEPH     CLOUDY    48  43  82 NE10      29.91R HAZE
MOSBY          CLOUDY    48  45  87 NE9       29.88R
WARRENSBURG    CLOUDY    46  43  87 NE8       29.87R
WHITEMAN AFB   CLOUDY    48  46  92 NE9       29.86R
CLINTON        CLOUDY    48  46  93 NE9       29.86R
SEDALIA        CLOUDY    48  46  93 NE9       29.87R FOG
WARSAW         NOT AVBL
MARSHALL       CLOUDY    50  46  87 NE14      29.90R
CHILLICOTHE      N/A     48  41  76 NE8       29.92R
MOBERLY        CLOUDY    46  41  81 NE12      29.91R
KIRKSVILLE     MOCLDY    43  40  89 NE9       29.94R

$$

MOZ041-047>049-056>058-063>065-088>090-097-261200-
...EASTERN AND SOUTHERN MISSOURI...

CITY           SKY/WX    TMP DP  RH WIND       PRES   REMARKS
ST. LOUIS INTL CLOUDY    49  40  71 NE8       29.87R
SPIRIT OF STL  CLOUDY    47  43  86 NE10      29.86R FOG
COLUMBIA       CLOUDY    47  43  86 NE12      29.87R
JEFFERSON CITY CLOUDY    48  43  82 NE5       29.87R
MEXICO         CLOUDY   N/A N/A N/A NE8       29.89R HAZE
HANNIBAL       CLOUDY    45  37  76 NE7       29.91R
ROLLA          CLOUDY    45  44  97 NE9       29.82S
LEBANON        CLOUDY    48  46  93 NE14      29.84R
OSAGE BEACH    CLOUDY    46  43  87 NE9       29.84R
SPRINGFIELD    CLOUDY    52  49  89 NE13      29.80R
BRANSON        CLOUDY    55  50  82 CALM      29.80R
NEVADA         CLOUDY    50  46  87 NE12      29.85R
JOPLIN         CLOUDY    53  50  89 NE7       29.81R
WEST PLAINS    CLOUDY    52  48  86 N10       29.79R

$$

IAZ060-094-KSZ022-034>040-054-083-096-NEZ052-066-093-261200-
...KANSAS...SOUTHEAST NEBRASKA AND IOWA...

CITY           SKY/WX    TMP DP  RH WIND       PRES   REMARKS
TOPEKA         CLOUDY    50  46  86 NE12      29.88R
MANHATTAN      CLOUDY    49  47  93 NE14      29.87R FOG
EMPORIA        CLOUDY    48  48 100 NE9       29.84R FOG
CHANUTE        CLOUDY    51  49  92 NE13G20   29.82R
WICHITA        CLOUDY    50  46  86 NE18      29.82R
OMAHA          CLEAR     41  39  93 N3        29.97R
LINCOLN        CLOUDY    45  40  82 NE10      29.96R
FALLS CITY     CLOUDY    46  41  82 NE8       29.92R
LAMONI         CLEAR     40  36  86 NE7       29.94R
DES MOINES     PTCLDY    42  36  79 NE6       29.98R

$$



USA.gov is the U.S. government's official web portal to all federal, state and local government web resources and services.